SL-16 DEB, 22606

Orbit data source: Space-Track

SL-16 DEB, 22606 is space debris in LEO originally from a launch on Fri, 26 Mar 1993 UTC launched from the Tyuratam Missile And Space Complex (TTMTR). Debris objects in space refer to the collection of defunct objects orbiting the Earth. Examples of debris include non-operational satellites, rocket bodies, and fragments generated from explosions, collisions, or faulty payload assembly.

Loading next visibility...
Identifier
22606, 1993-016Q
Orbit
LEO
Country
Flag of CISCIS
Related business
Manufacturer
Unknown
Mission
Spacecraft
Bus & Motor
Unknown
Mass
Unknown
Launch date (UTC)
1993-03-26 (33 years ago)
Launch vehicle
Unknown
Launch site
Tyuratam Missile And Space Complex (TTMTR)
Object type
Payload
Rocket body
Debris
Shape & HBR
Unknown shape, 0.1 m
Radar Cross Section
Medium (>0.1 m² and <1 m²)

Expand to show TLE details & history
Last TLE update: 10 hours ago

TLE from 10 hours ago
0 SL-16 DEB
1 22606U 93016Q   26255.25375309  .00000154  00000-0  14968-3 0  9990
2 22606  71.0029 340.9927 0145057  39.2671 352.7061 13.89261823691385
Epoch: 2026-09-12T06:05Z
TLE epoch observation values (Epoch: 2026-09-12T06:05:24.266Z)
Latitude
29.90713°
Longitude
-90.26397°
Altitude
829.263 km
Speed
7.495 km/s
True Right ascension
23h 29m 24s
True Declination
29° 45' 37"
Sunlit
Object was in full shadow at epoch
Visualization orbit readout
Latitude
Unknown
Longitude
Unknown
Altitude
Unknown
Speed
Unknown
Apparent Right ascension
Unknown
Apparent Declination
Unknown
Sunlit
N/A
Visualization observer readout
Local Sidereal Time
08:48:16
Azimuth
Unknown
Elevation
Unknown
Doppler factor
Unknown
Orbital elements
Apogee altitude
1,035.166 km
Perigee altitude
823.171 km
Semi-major axis
7,307.305 km
Eccentricity
0.01451
Inclination
71.0029°
RAAN
340.9927°
Arg. of periapsis
39.2671°
True anomaly
352.4912°
Mean anomaly
352.7061°
Eccentric anomaly
352.59904°
Mean motion
3.47462 °/min
Orbital period
103.61 mins
BSTAR
0.00014968
Loading maneuver chart data...
Computing Atmospheric mass density...
Loading historical data...
Loading historical data...
Loading historical data...
Loading historical data...
Loading historical data...
Loading historical data...
Loading historical data...

Documentation

Showing up to 5 results
|